StationID,Date,MaxTemp,MinTemp,Precipitation,Snowfall,SnowDepth
"USC00502871","1997-12-01",-7.96,10.04,18.00,28.00,330.00
"USC00502871","1997-12-02",3.92,-20.02,3.00,5.00,305.00
"USC00502871","1997-12-03",-16.06,-23.98,0.00,0.00,305.00
"USC00502871","1997-12-04",15.98,-23.98,0.00,0.00,305.00
"USC00502871","1997-12-05",26.06,-2.02,0.00,0.00,305.00
"USC00502871","1997-12-06",-0.04,-7.96,0.00,0.00,305.00
"USC00502871","1997-12-07",6.08,-11.02,8.00,15.00,305.00
"USC00502871","1997-12-08",15.08,3.02,5.00,13.00,330.00
"USC00502871","1997-12-09",5.00,-18.04,0.00,0.00,330.00
"USC00502871","1997-12-10",15.08,-5.08,0.00,0.00,330.00
"USC00502871","1997-12-11",15.08,-0.04,0.00,5.00,330.00
"USC00502871","1997-12-12",8.06,-5.08,0.00,8.00,330.00
"USC00502871","1997-12-13",5.00,-14.08,10.00,25.00,356.00
"USC00502871","1997-12-14",-9.94,-25.06,10.00,10.00,356.00
"USC00502871","1997-12-15",-9.04,-14.08,5.00,5.00,356.00
"USC00502871","1997-12-16",-9.94,-29.92,0.00,3.00,356.00
"USC00502871","1997-12-17",-18.94,-31.00,0.00,0.00,356.00
"USC00502871","1997-12-18",19.94,-29.92,0.00,0.00,356.00
"USC00502871","1997-12-19",19.94,1.04,0.00,0.00,356.00
"USC00502871","1997-12-20",6.08,-25.06,20.00,33.00,356.00
"USC00502871","1997-12-21",-18.94,-29.92,0.00,0.00,356.00
"USC00502871","1997-12-22",3.02,-18.94,0.00,0.00,356.00
"USC00502871","1997-12-23",8.06,-5.08,10.00,20.00,356.00
"USC00502871","1997-12-24",8.06,-5.98,0.00,5.00,356.00
"USC00502871","1997-12-25",1.94,-18.04,0.00,3.00,356.00
"USC00502871","1997-12-26",-0.04,-20.92,61.00,97.00,432.00
"USC00502871","1997-12-27",-18.94,-27.94,0.00,0.00,432.00
"USC00502871","1997-12-28",-5.98,-23.98,3.00,10.00,432.00
"USC00502871","1997-12-29",-5.98,-25.06,13.00,18.00,432.00
"USC00502871","1997-12-30",-23.98,-38.02,0.00,0.00,432.00
"USC00502871","1997-12-31",-13.00,-38.92,0.00,0.00,432.00
"USC00502871","1998-01-01",-5.08,-14.08,0.00,0.00,406.00
"USC00502871","1998-01-02",-11.92,-32.08,28.00,20.00,432.00
"USC00502871","1998-01-03",-32.08,-47.92,0.00,0.00,432.00
"USC00502871","1998-01-04",-43.06,-50.98,0.00,0.00,432.00
"USC00502871","1998-01-05",-36.94,-47.02,0.00,0.00,406.00
"USC00502871","1998-01-06",-29.02,-41.08,0.00,0.00,406.00
"USC00502871","1998-01-07",-29.02,-36.04,0.00,0.00,406.00
"USC00502871","1998-01-08",-16.06,-32.08,0.00,0.00,406.00
"USC00502871","1998-01-09",3.02,-16.06,0.00,0.00,406.00
"USC00502871","1998-01-10",10.94,-11.02,0.00,0.00,406.00
"USC00502871","1998-01-11",8.96,-11.02,0.00,0.00,406.00
"USC00502871","1998-01-12",3.02,-25.06,0.00,0.00,406.00
"USC00502871","1998-01-13",-0.04,-27.04,0.00,0.00,406.00
"USC00502871","1998-01-14",-9.04,-20.02,0.00,0.00,406.00
"USC00502871","1998-01-15",-5.08,-14.98,0.00,0.00,406.00
"USC00502871","1998-01-16",-9.04,-22.00,0.00,0.00,406.00
"USC00502871","1998-01-17",3.92,-22.00,0.00,0.00,406.00
"USC00502871","1998-01-18",1.94,-13.00,0.00,3.00,406.00
"USC00502871","1998-01-19",-0.04,-22.00,0.00,0.00,406.00
"USC00502871","1998-01-20",-7.96,-22.00,0.00,0.00,406.00
"USC00502871","1998-01-21",-5.08,-23.08,0.00,0.00,406.00
"USC00502871","1998-01-22",-4.00,-22.00,0.00,0.00,406.00
"USC00502871","1998-01-23",5.00,-25.06,0.00,0.00,406.00
"USC00502871","1998-01-24",-0.04,-18.04,0.00,5.00,406.00
"USC00502871","1998-01-25",-7.06,-22.00,3.00,13.00,406.00
"USC00502871","1998-01-26",-4.00,-11.02,3.00,8.00,406.00
"USC00502871","1998-01-27",-0.04,-18.04,0.00,0.00,406.00
"USC00502871","1998-01-28",3.02,-11.02,0.00,0.00,406.00
"USC00502871","1998-01-29",3.92,-13.00,0.00,0.00,406.00
"USC00502871","1998-01-30",12.02,-9.94,0.00,0.00,406.00
"USC00502871","1998-01-31",19.94,-4.00,0.00,0.00,406.00
"USC00502871","1998-02-01",17.06,-7.96,0.00,0.00,406.00
"USC00502871","1998-02-02",10.94,-7.96,0.00,0.00,406.00
"USC00502871","1998-02-03",24.08,-2.02,0.00,0.00,406.00
"USC00502871","1998-02-04",19.94,-2.02,0.00,0.00,406.00
"USC00502871","1998-02-05",15.98,-5.98,0.00,0.00,406.00
"USC00502871","1998-02-06",15.08,-11.02,0.00,0.00,406.00
"USC00502871","1998-02-07",6.98,-14.08,0.00,0.00,406.00
"USC00502871","1998-02-08",6.98,-20.92,0.00,0.00,406.00
"USC00502871","1998-02-09",8.96,-5.08,0.00,0.00,406.00
"USC00502871","1998-02-10",12.92,-9.04,0.00,0.00,406.00
"USC00502871","1998-02-11",21.92,-4.00,0.00,0.00,406.00
"USC00502871","1998-02-12",8.96,-14.98,0.00,0.00,406.00
"USC00502871","1998-02-13",3.92,-20.02,23.00,30.00,432.00
"USC00502871","1998-02-14",8.06,-25.06,0.00,0.00,432.00
"USC00502871","1998-02-15",8.06,-11.02,0.00,0.00,406.00
"USC00502871","1998-02-16",5.00,-2.02,0.00,0.00,406.00
"USC00502871","1998-02-17",3.92,-16.06,0.00,0.00,406.00
"USC00502871","1998-02-18",8.06,-7.96,0.00,0.00,406.00
"USC00502871","1998-02-19",15.98,-11.02,0.00,0.00,406.00
"USC00502871","1998-02-20",19.04,-13.00,0.00,0.00,406.00
"USC00502871","1998-02-21",19.04,-11.92,0.00,0.00,406.00
"USC00502871","1998-02-22",8.96,-20.02,0.00,0.00,406.00
"USC00502871","1998-02-23",33.98,-11.92,0.00,0.00,406.00
"USC00502871","1998-02-24",28.94,-5.08,0.00,0.00,406.00
"USC00502871","1998-02-25",37.04,-2.92,0.00,0.00,406.00
"USC00502871","1998-02-26",21.92,-0.94,15.00,36.00,457.00
"USC00502871","1998-02-27",19.94,12.92,20.00,46.00,483.00
"USC00502871","1998-02-28",17.06,8.96,3.00,25.00,508.00
"USC00502871","1998-03-01",21.02,-9.94,0.00,3.00,483.00
"USC00502871","1998-03-02",8.96,-14.98,0.00,8.00,483.00
"USC00502871","1998-03-03",17.96,-13.00,0.00,8.00,508.00
"USC00502871","1998-03-04",23.00,-20.92,0.00,0.00,483.00
"USC00502871","1998-03-05",26.96,-16.06,0.00,0.00,483.00
"USC00502871","1998-03-06",28.94,-11.92,0.00,0.00,457.00
"USC00502871","1998-03-07",28.04,-11.02,0.00,0.00,457.00
"USC00502871","1998-03-08",26.96,-16.06,0.00,0.00,457.00
"USC00502871","1998-03-09",24.98,-16.06,0.00,0.00,457.00
"USC00502871","1998-03-10",23.00,-11.92,0.00,0.00,457.00
"USC00502871","1998-03-11",26.96,-23.08,0.00,0.00,457.00
"USC00502871","1998-03-12",33.08,-16.96,0.00,0.00,457.00
"USC00502871","1998-03-13",41.00,-9.04,0.00,0.00,457.00
"USC00502871","1998-03-14",44.96,-4.00,0.00,0.00,432.00
"USC00502871","1998-03-15",42.98,1.94,0.00,0.00,432.00
"USC00502871","1998-03-16",44.06,1.94,0.00,0.00,432.00
"USC00502871","1998-03-17",42.08,8.96,0.00,0.00,432.00
"USC00502871","1998-03-18",50.00,12.02,0.00,0.00,432.00
"USC00502871","1998-03-19",50.00,17.96,0.00,0.00,406.00
"USC00502871","1998-03-20",55.94,17.96,0.00,0.00,406.00
"USC00502871","1998-03-21",53.96,17.06,0.00,0.00,406.00
"USC00502871","1998-03-22",44.96,12.02,0.00,0.00,406.00
"USC00502871","1998-03-23",51.98,14.00,0.00,0.00,406.00
"USC00502871","1998-03-24",51.98,21.92,0.00,0.00,406.00
"USC00502871","1998-03-25",48.92,17.96,0.00,0.00,406.00
"USC00502871","1998-03-26",39.02,15.98,0.00,0.00,381.00
"USC00502871","1998-03-27",30.02,10.04,0.00,0.00,381.00
"USC00502871","1998-03-28",39.92,8.96,0.00,0.00,381.00
"USC00502871","1998-03-29",44.06,8.06,0.00,0.00,381.00
"USC00502871","1998-03-30",30.92,-0.04,0.00,5.00,381.00
"USC00502871","1998-03-31",33.98,-9.94,0.00,0.00,381.00
"USC00502871","1998-04-01",44.96,10.04,0.00,0.00,381.00
"USC00502871","1998-04-02",44.96,15.08,0.00,0.00,381.00
"USC00502871","1998-04-03",46.94,14.00,0.00,0.00,381.00
"USC00502871","1998-04-04",48.92,21.92,0.00,0.00,356.00
"USC00502871","1998-04-05",48.02,14.00,0.00,0.00,356.00
"USC00502871","1998-04-06",51.98,17.96,0.00,0.00,356.00
"USC00502871","1998-04-07",51.98,28.04,0.00,0.00,305.00
"USC00502871","1998-04-08",48.92,17.06,0.00,0.00,254.00
"USC00502871","1998-04-09",48.92,17.06,0.00,0.00,229.00
"USC00502871","1998-04-10",48.02,26.96,0.00,0.00,203.00
"USC00502871","1998-04-11",46.94,28.04,0.00,0.00,178.00
"USC00502871","1998-04-12",44.96,28.04,178.00,28.00,178.00
"USC00502871","1998-04-21",53.96,,0.00,0.00,0.00
"USC00502871","1998-04-22",53.06,28.94,0.00,0.00,0.00
"USC00502871","1998-04-23",55.94,24.98,0.00,0.00,0.00
"USC00502871","1998-04-24",,26.96,0.00,0.00,0.00
"USC00502871","1998-04-25",46.04,21.92,0.00,0.00,0.00
"USC00502871","1998-04-26",46.94,15.98,0.00,0.00,0.00
"USC00502871","1998-04-27",55.94,24.08,0.00,0.00,0.00
"USC00502871","1998-04-28",,,0.00,0.00,0.00
"USC00502871","1998-04-29",42.98,30.02,0.00,0.00,0.00
"USC00502871","1998-04-30",48.02,26.06,0.00,0.00,0.00
"USC00502871","1998-05-01",53.06,24.98,0.00,0.00,0.00
"USC00502871","1998-05-02",,28.04,0.00,,0.00
"USC00502871","1998-05-03",,24.98,0.00,0.00,0.00
"USC00502871","1998-05-04",46.04,19.94,0.00,0.00,0.00
"USC00502871","1998-05-05",59.00,28.04,0.00,0.00,0.00
"USC00502871","1998-05-06",60.98,30.02,0.00,0.00,0.00
"USC00502871","1998-05-07",57.02,35.06,0.00,0.00,0.00
"USC00502871","1998-05-08",57.02,21.02,0.00,0.00,0.00
"USC00502871","1998-05-09",60.98,28.04,0.00,0.00,0.00
"USC00502871","1998-05-10",53.06,23.00,0.00,0.00,0.00
"USC00502871","1998-05-11",51.98,26.06,23.00,0.00,0.00
"USC00502871","1998-05-12",51.98,23.00,8.00,,0.00
"USC00502871","1998-05-13",51.08,21.02,0.00,0.00,0.00
"USC00502871","1998-05-14",57.02,26.96,0.00,0.00,0.00
"USC00502871","1998-05-15",66.02,26.96,0.00,0.00,0.00
"USC00502871","1998-05-16",66.92,30.92,0.00,0.00,0.00
"USC00502871","1998-05-17",66.92,24.98,0.00,0.00,0.00
"USC00502871","1998-05-18",69.98,24.98,0.00,0.00,0.00
"USC00502871","1998-05-19",62.96,26.96,0.00,0.00,0.00
"USC00502871","1998-05-20",64.04,26.96,8.00,0.00,0.00
"USC00502871","1998-05-21",69.08,28.04,0.00,0.00,0.00
"USC00502871","1998-05-22",75.02,42.98,33.00,0.00,0.00
"USC00502871","1998-05-23",64.04,32.00,0.00,0.00,0.00
"USC00502871","1998-05-24",73.94,37.94,0.00,0.00,0.00
"USC00502871","1998-05-25",75.92,39.02,25.00,0.00,0.00
"USC00502871","1998-05-26",69.98,46.94,15.00,0.00,0.00
"USC00502871","1998-05-27",78.08,35.06,0.00,0.00,0.00
"USC00502871","1998-05-28",71.96,55.04,3.00,0.00,0.00
"USC00502871","1998-05-29",73.94,44.96,3.00,0.00,0.00
"USC00502871","1998-05-30",73.94,39.92,0.00,0.00,0.00
"USC00502871","1998-05-31",64.04,44.06,3.00,0.00,0.00
"USC00502871","1998-06-01",64.04,44.96,0.00,0.00,0.00
"USC00502871","1998-06-02",62.96,44.06,0.00,0.00,0.00
"USC00502871","1998-06-03",66.92,,0.00,0.00,0.00
"USC00502871","1998-06-04",64.94,39.02,8.00,0.00,0.00
"USC00502871","1998-06-05",,,,0.00,0.00
"USC00502871","1998-06-06",71.06,39.92,0.00,0.00,0.00
"USC00502871","1998-06-07",71.06,39.02,0.00,0.00,0.00
"USC00502871","1998-06-08",,,,0.00,0.00
"USC00502871","1998-06-09",,44.96,0.00,0.00,0.00
"USC00502871","1998-06-10",,46.04,8.00,0.00,0.00
"USC00502871","1998-06-11",62.96,33.98,0.00,0.00,0.00
"USC00502871","1998-06-12",,46.94,13.00,0.00,0.00
"USC00502871","1998-06-13",,,15.00,0.00,0.00
"USC00502871","1998-06-14",,,10.00,0.00,0.00
"USC00502871","1998-06-15",59.00,48.02,25.00,0.00,0.00
"USC00502871","1998-06-16",66.92,41.00,3.00,0.00,0.00
"USC00502871","1998-06-17",71.96,39.92,23.00,0.00,0.00
"USC00502871","1998-06-18",77.00,46.94,8.00,0.00,0.00
"USC00502871","1998-06-19",71.06,37.94,0.00,0.00,0.00
"USC00502871","1998-06-20",71.06,48.02,0.00,0.00,0.00
"USC00502871","1998-06-21",68.00,51.08,15.00,0.00,0.00
"USC00502871","1998-06-22",57.92,46.04,10.00,0.00,0.00
"USC00502871","1998-06-23",66.02,44.06,3.00,0.00,0.00
"USC00502871","1998-06-24",66.92,44.96,8.00,0.00,0.00
"USC00502871","1998-06-25",59.00,42.98,112.00,0.00,0.00
"USC00502871","1998-06-26",66.92,,,0.00,0.00
"USC00502871","1998-06-27",78.08,,,0.00,0.00
"USC00502871","1998-06-28",80.06,48.02,0.00,0.00,0.00
"USC00502871","1998-06-29",89.06,46.04,0.00,0.00,0.00
"USC00502871","1998-06-30",84.92,57.02,18.00,0.00,0.00
"USC00502871","1998-07-01",78.98,55.04,0.00,0.00,0.00
"USC00502871","1998-07-02",73.04,48.92,8.00,0.00,0.00
"USC00502871","1998-07-03",80.06,39.02,0.00,0.00,0.00
"USC00502871","1998-07-04",84.92,48.92,0.00,0.00,0.00
"USC00502871","1998-07-05",86.00,48.92,0.00,0.00,0.00
"USC00502871","1998-07-06",71.06,57.02,0.00,0.00,0.00
"USC00502871","1998-07-07",60.98,50.00,282.00,0.00,0.00
"USC00502871","1998-07-08",75.92,39.02,69.00,0.00,0.00
"USC00502871","1998-07-09",75.02,50.00,8.00,0.00,0.00
"USC00502871","1998-07-10",75.02,44.96,8.00,0.00,0.00
"USC00502871","1998-07-11",62.06,48.92,56.00,0.00,0.00
"USC00502871","1998-07-12",73.04,53.96,5.00,0.00,0.00
"USC00502871","1998-07-13",64.04,51.98,86.00,0.00,0.00
"USC00502871","1998-07-14",78.08,37.94,5.00,0.00,0.00
"USC00502871","1998-07-15",82.94,55.04,3.00,0.00,0.00
"USC00502871","1998-07-16",75.92,44.96,30.00,0.00,0.00
"USC00502871","1998-07-17",59.00,48.92,117.00,0.00,0.00
"USC00502871","1998-07-18",69.08,51.08,86.00,0.00,0.00
"USC00502871","1998-07-19",75.02,39.02,3.00,0.00,0.00
"USC00502871","1998-07-20",78.98,46.94,36.00,0.00,0.00
"USC00502871","1998-07-21",82.04,44.06,13.00,0.00,0.00
"USC00502871","1998-07-22",78.08,53.96,10.00,0.00,0.00
"USC00502871","1998-07-23",60.98,51.08,239.00,0.00,0.00
"USC00502871","1998-07-24",68.00,48.02,8.00,0.00,0.00
"USC00502871","1998-07-25",68.00,33.98,3.00,0.00,0.00
"USC00502871","1998-07-26",69.08,48.02,18.00,0.00,0.00
"USC00502871","1998-07-27",66.92,42.08,5.00,0.00,0.00
"USC00502871","1998-07-28",69.98,39.02,15.00,0.00,0.00
"USC00502871","1998-07-29",71.96,39.02,5.00,0.00,0.00
"USC00502871","1998-07-30",68.00,42.08,0.00,0.00,0.00
"USC00502871","1998-07-31",75.02,48.02,0.00,0.00,0.00
"USC00502871","1998-08-01",80.06,39.02,0.00,0.00,0.00
"USC00502871","1998-08-02",,42.98,0.00,0.00,0.00
"USC00502871","1998-08-03",,,43.00,0.00,0.00
"USC00502871","1998-08-04",62.96,,8.00,0.00,0.00
"USC00502871","1998-08-05",60.08,48.92,46.00,0.00,0.00
"USC00502871","1998-08-06",55.94,46.94,64.00,0.00,0.00
"USC00502871","1998-08-07",60.08,35.96,5.00,0.00,0.00
"USC00502871","1998-08-08",53.96,46.04,86.00,0.00,0.00
"USC00502871","1998-08-09",57.02,46.94,41.00,0.00,0.00
"USC00502871","1998-08-10",64.04,44.06,5.00,0.00,0.00
"USC00502871","1998-08-11",64.04,39.02,25.00,0.00,0.00
"USC00502871","1998-08-12",53.96,48.02,38.00,0.00,0.00
"USC00502871","1998-08-13",66.92,39.02,3.00,0.00,0.00
"USC00502871","1998-08-14",66.92,37.94,0.00,0.00,0.00
"USC00502871","1998-08-15",55.94,48.02,91.00,0.00,0.00
"USC00502871","1998-08-16",,48.02,,0.00,0.00
"USC00502871","1998-08-17",,,,0.00,0.00
"USC00502871","1998-08-18",,,,0.00,0.00
"USC00502871","1998-08-19",,,,0.00,0.00
"USC00502871","1998-08-20",,,,0.00,0.00
"USC00502871","1998-08-21",,,,0.00,0.00
"USC00502871","1998-08-22",64.94,28.94,,0.00,0.00
"USC00502871","1998-08-23",64.04,28.04,8.00,0.00,0.00
"USC00502871","1998-08-24",64.94,42.08,3.00,0.00,0.00
"USC00502871","1998-08-25",62.06,37.94,0.00,0.00,0.00
"USC00502871","1998-08-26",57.92,39.92,3.00,0.00,0.00
"USC00502871","1998-08-27",53.06,39.92,13.00,0.00,0.00
"USC00502871","1998-08-28",60.08,28.04,10.00,0.00,0.00
"USC00502871","1998-08-29",55.94,39.92,23.00,0.00,0.00
"USC00502871","1998-08-30",62.96,24.98,0.00,0.00,0.00
"USC00502871","1998-08-31",60.08,28.04,20.00,0.00,0.00
"USC00502871","1998-09-01",64.94,32.00,10.00,0.00,0.00
"USC00502871","1998-09-02",55.94,37.94,5.00,0.00,0.00
"USC00502871","1998-09-03",57.02,35.06,8.00,0.00,0.00
"USC00502871","1998-09-04",60.98,35.06,3.00,0.00,0.00
"USC00502871","1998-09-05",64.94,28.94,0.00,0.00,0.00
"USC00502871","1998-09-06",64.04,33.08,5.00,0.00,0.00
"USC00502871","1998-09-07",51.98,39.92,36.00,0.00,0.00
"USC00502871","1998-09-08",60.08,30.92,0.00,0.00,0.00
"USC00502871","1998-09-09",64.94,24.98,0.00,0.00,0.00
"USC00502871","1998-09-10",66.92,26.96,0.00,0.00,0.00
"USC00502871","1998-09-11",62.06,30.92,0.00,0.00,0.00
"USC00502871","1998-09-12",55.94,33.08,3.00,0.00,0.00
"USC00502871","1998-09-13",53.96,23.00,3.00,0.00,0.00
"USC00502871","1998-09-14",44.96,30.92,20.00,0.00,0.00
"USC00502871","1998-09-15",42.08,35.06,38.00,0.00,0.00
"USC00502871","1998-09-16",50.00,37.94,48.00,0.00,0.00
"USC00502871","1998-09-17",60.08,35.06,8.00,0.00,0.00
"USC00502871","1998-09-18",62.96,33.98,0.00,0.00,0.00
"USC00502871","1998-09-19",62.96,33.98,0.00,0.00,0.00
"USC00502871","1998-09-20",57.02,37.94,3.00,0.00,0.00
"USC00502871","1998-09-21",51.08,37.94,8.00,0.00,0.00
"USC00502871","1998-09-22",57.02,26.96,5.00,0.00,0.00
"USC00502871","1998-09-23",57.92,24.98,0.00,0.00,0.00
"USC00502871","1998-09-24",50.00,35.06,36.00,0.00,0.00
"USC00502871","1998-09-25",53.06,30.92,3.00,0.00,0.00
"USC00502871","1998-09-26",50.00,24.98,0.00,0.00,0.00
"USC00502871","1998-09-27",41.00,28.04,86.00,0.00,0.00
"USC00502871","1998-09-28",42.08,26.06,20.00,0.00,0.00
"USC00502871","1998-09-29",44.96,15.98,0.00,0.00,0.00
"USC00502871","1998-09-30",46.04,23.00,0.00,0.00,0.00
"USC00502871","1998-10-01",42.98,19.04,0.00,0.00,0.00
"USC00502871","1998-10-02",39.92,8.96,0.00,0.00,0.00
"USC00502871","1998-10-03",42.08,8.06,0.00,0.00,0.00
"USC00502871","1998-10-04",44.96,8.06,0.00,0.00,0.00
"USC00502871","1998-10-05",39.92,23.00,0.00,0.00,0.00
"USC00502871","1998-10-06",37.94,23.00,0.00,0.00,0.00
"USC00502871","1998-10-07",35.96,17.96,0.00,0.00,0.00
"USC00502871","1998-10-08",37.94,3.02,0.00,0.00,0.00
"USC00502871","1998-10-09",39.92,3.92,0.00,0.00,0.00
"USC00502871","1998-10-10",37.04,6.08,0.00,0.00,0.00
"USC00502871","1998-10-11",39.92,8.06,0.00,0.00,0.00
"USC00502871","1998-10-12",42.98,8.96,0.00,0.00,0.00
"USC00502871","1998-10-13",41.00,14.00,0.00,0.00,0.00
"USC00502871","1998-10-14",33.98,23.00,18.00,10.00,
"USC00502871","1998-10-15",39.02,6.98,0.00,0.00,0.00
"USC00502871","1998-10-16",44.06,17.96,0.00,0.00,0.00
"USC00502871","1998-10-17",33.08,10.94,25.00,51.00,51.00
"USC00502871","1998-10-18",33.98,6.98,5.00,13.00,51.00
"USC00502871","1998-10-19",35.96,15.08,0.00,0.00,51.00
"USC00502871","1998-10-20",32.00,12.02,0.00,5.00,25.00
"USC00502871","1998-10-21",28.04,17.06,25.00,28.00,51.00
"USC00502871","1998-10-22",30.92,-0.04,0.00,0.00,51.00
"USC00502871","1998-10-23",37.94,21.92,5.00,0.00,51.00
"USC00502871","1998-10-24",39.92,21.02,0.00,0.00,51.00
"USC00502871","1998-10-25",39.92,21.92,3.00,8.00,51.00
"USC00502871","1998-10-26",26.06,1.04,0.00,0.00,51.00
"USC00502871","1998-10-27",30.02,3.92,0.00,0.00,51.00
"USC00502871","1998-10-28",28.94,-0.04,0.00,0.00,51.00
"USC00502871","1998-10-29",23.00,-0.04,0.00,0.00,51.00
"USC00502871","1998-10-30",21.02,-2.02,0.00,0.00,51.00
"USC00502871","1998-10-31",26.06,3.92,5.00,15.00,76.00
"USC00502871","1998-11-01",19.94,-0.04,0.00,0.00,76.00
"USC00502871","1998-11-02",30.02,15.08,0.00,0.00,76.00
"USC00502871","1998-11-03",19.04,1.04,0.00,0.00,76.00
"USC00502871","1998-11-04",24.98,-0.94,0.00,0.00,76.00
"USC00502871","1998-11-05",21.92,-0.94,0.00,0.00,76.00
"USC00502871","1998-11-06",23.00,3.02,0.00,0.00,76.00
"USC00502871","1998-11-07",26.96,3.92,0.00,0.00,76.00
"USC00502871","1998-11-08",28.04,-0.94,0.00,0.00,76.00
"USC00502871","1998-11-09",17.96,-2.92,0.00,0.00,76.00
"USC00502871","1998-11-10",10.94,-9.94,0.00,0.00,76.00
"USC00502871","1998-11-11",1.94,-18.04,0.00,0.00,76.00
"USC00502871","1998-11-12",10.04,-18.04,3.00,15.00,76.00
"USC00502871","1998-11-13",12.92,3.92,0.00,13.00,102.00
"USC00502871","1998-11-14",10.04,-2.92,0.00,0.00,102.00
"USC00502871","1998-11-15",3.92,-5.98,0.00,0.00,102.00
"USC00502871","1998-11-16",15.08,-0.04,3.00,13.00,102.00
"USC00502871","1998-11-17",15.98,-4.00,20.00,46.00,152.00
"USC00502871","1998-11-18",17.06,-5.08,0.00,3.00,127.00
"USC00502871","1998-11-19",15.08,-5.98,0.00,0.00,127.00
"USC00502871","1998-11-20",1.94,-2.92,0.00,0.00,127.00
"USC00502871","1998-11-21",8.06,-7.96,20.00,41.00,152.00
"USC00502871","1998-11-22",10.04,-9.04,0.00,8.00,152.00
"USC00502871","1998-11-23",6.98,-14.08,0.00,0.00,152.00
"USC00502871","1998-11-24",1.04,-16.06,0.00,0.00,152.00
"USC00502871","1998-11-25",1.04,-9.94,5.00,15.00,152.00
"USC00502871","1998-11-26",1.04,-2.92,3.00,8.00,152.00
"USC00502871","1998-11-27",-0.04,-16.96,5.00,8.00,152.00
"USC00502871","1998-11-28",10.94,-5.98,0.00,0.00,152.00
"USC00502871","1998-11-29",-2.02,-13.00,0.00,0.00,152.00
"USC00502871","1998-11-30",3.92,-14.08,0.00,0.00,152.00
"USC00502871","1998-12-01",1.04,-14.98,0.00,0.00,152.00
"USC00502871","1998-12-02",-2.92,-16.06,0.00,3.00,152.00
"USC00502871","1998-12-03",6.98,-11.92,10.00,13.00,152.00
"USC00502871","1998-12-04",17.96,-0.04,36.00,43.00,203.00
"USC00502871","1998-12-05",12.02,-0.04,58.00,81.00,279.00
"USC00502871","1998-12-06",6.98,-20.92,3.00,5.00,254.00
"USC00502871","1998-12-07",3.02,-18.04,0.00,0.00,254.00
"USC00502871","1998-12-08",-0.04,-7.06,3.00,8.00,254.00
"USC00502871","1998-12-09",-0.04,-5.98,3.00,8.00,229.00
"USC00502871","1998-12-10",-5.08,-23.98,13.00,18.00,254.00
"USC00502871","1998-12-11",-7.06,-32.08,0.00,0.00,229.00
"USC00502871","1998-12-12",-5.98,-11.02,8.00,28.00,254.00
"USC00502871","1998-12-13",-5.98,-29.92,0.00,3.00,254.00
"USC00502871","1998-12-14",-14.98,-29.92,0.00,0.00,254.00
"USC00502871","1998-12-15",-11.92,-27.94,38.00,43.00,279.00
"USC00502871","1998-12-16",-11.92,-36.04,3.00,8.00,279.00
"USC00502871","1998-12-17",-27.94,-41.08,0.00,0.00,279.00
"USC00502871","1998-12-18",15.98,-27.94,0.00,0.00,279.00
"USC00502871","1998-12-19",17.06,6.08,0.00,0.00,279.00
"USC00502871","1998-12-20",17.06,6.08,0.00,0.00,254.00
"USC00502871","1998-12-21",15.98,-0.04,0.00,0.00,254.00
"USC00502871","1998-12-22",19.04,12.92,3.00,3.00,254.00
"USC00502871","1998-12-23",19.04,-4.00,0.00,0.00,254.00
"USC00502871","1998-12-24",-2.02,-14.08,0.00,0.00,254.00
"USC00502871","1998-12-25",-7.96,-18.04,0.00,0.00,254.00
"USC00502871","1998-12-26",-14.08,-20.92,0.00,0.00,254.00
"USC00502871","1998-12-27",6.08,-23.08,0.00,0.00,254.00
"USC00502871","1998-12-28",1.94,-5.98,0.00,0.00,254.00
"USC00502871","1998-12-29",-4.00,-20.92,0.00,0.00,229.00
"USC00502871","1998-12-30",-11.02,-29.92,0.00,0.00,229.00
"USC00502871","1998-12-31",3.92,-32.08,8.00,8.00,254.00
"USC00502871","1999-01-01",1.94,-22.00,0.00,0.00,254.00
"USC00502871","1999-01-02",8.96,-7.96,5.00,5.00,254.00
"USC00502871","1999-01-03",-0.94,-31.00,3.00,3.00,254.00
"USC00502871","1999-01-04",-25.06,-32.98,0.00,0.00,254.00
"USC00502871","1999-01-05",-22.00,-32.98,0.00,0.00,254.00
"USC00502871","1999-01-06",-25.06,-34.06,0.00,0.00,254.00
"USC00502871","1999-01-07",-27.94,-36.94,0.00,0.00,254.00
"USC00502871","1999-01-08",1.94,-36.94,0.00,0.00,254.00
"USC00502871","1999-01-09",-25.06,-38.02,0.00,0.00,254.00
"USC00502871","1999-01-10",-5.98,-34.96,0.00,0.00,254.00
"USC00502871","1999-01-11",6.98,-14.08,8.00,25.00,279.00
"USC00502871","1999-01-12",10.94,-9.94,0.00,0.00,279.00
"USC00502871","1999-01-13",8.06,-9.94,0.00,0.00,279.00
"USC00502871","1999-01-14",8.96,-5.08,0.00,3.00,279.00
"USC00502871","1999-01-15",6.98,-2.92,5.00,15.00,279.00
"USC00502871","1999-01-16",5.00,-25.96,5.00,15.00,279.00
"USC00502871","1999-01-17",-14.98,-34.96,0.00,0.00,279.00
"USC00502871","1999-01-18",-14.98,-36.04,0.00,3.00,279.00
"USC00502871","1999-01-19",-23.98,-41.08,0.00,3.00,279.00
"USC00502871","1999-01-20",-32.98,-45.04,0.00,0.00,279.00
"USC00502871","1999-01-21",-23.08,-47.02,0.00,0.00,279.00
"USC00502871","1999-01-22",10.94,-34.96,0.00,0.00,279.00
"USC00502871","1999-01-23",24.08,8.06,0.00,0.00,279.00
"USC00502871","1999-01-24",26.06,12.92,0.00,0.00,279.00
"USC00502871","1999-01-25",19.04,-32.08,41.00,64.00,330.00
"USC00502871","1999-01-26",-18.94,-36.94,0.00,0.00,330.00
"USC00502871","1999-01-27",-29.02,-47.02,0.00,0.00,305.00
"USC00502871","1999-01-28",-34.96,-52.06,0.00,0.00,305.00
"USC00502871","1999-01-29",-31.00,-52.96,3.00,5.00,305.00
"USC00502871","1999-01-30",-29.02,-38.02,10.00,8.00,305.00
"USC00502871","1999-01-31",-27.94,-38.02,3.00,5.00,305.00
"USC00502871","1999-02-01",-27.94,-34.96,3.00,3.00,305.00
"USC00502871","1999-02-02",-29.92,-47.02,10.00,10.00,330.00
"USC00502871","1999-02-03",-43.96,-56.02,0.00,0.00,330.00
"USC00502871","1999-02-04",-47.92,-58.00,0.00,0.00,330.00
"USC00502871","1999-02-05",-36.94,-56.92,8.00,8.00,330.00
"USC00502871","1999-02-06",-25.96,-36.94,23.00,23.00,356.00
"USC00502871","1999-02-07",-20.02,-32.98,3.00,3.00,356.00
"USC00502871","1999-02-08",-27.94,-34.06,5.00,8.00,356.00